Terug naar catalogus

STARLINK-36867

ActiefCommunicatieSSO
NORAD 67983·PAYLOAD·🇺🇸 United States

Gelanceerd Feb 25, 2026 vanaf Vandenberg Space Force Base

Loading…

Volgende Passages (komende 24 uur)

TLE

VersSource: CelesTrak SupGP

Epoch: Sep 14, 2026, 15:53 UTC

1 67983C 26038Y   26257.66229167 -.00058538  00000+0 -18158-2 0  2575
2 67983  97.2841 266.1628 0001689 107.0409 265.4576 15.33491956    14

Volg STARLINK-36867 in realtime met AllMySat

Download on the App Store